DW8816 Weather Reports


time (UTC)temp
C
wind
direction
speed
KPH
gust
KPH
rain 1hr
cm
rain 24hr
cm
rain mn
cm
humidity
%
barometer
mb
20260901115003 21 227 6.4 17.7 0.00 0.20 0.00 59 1019.4
20260901114003 21 251 4.8 17.7 0.00 0.20 0.00 59 1019.3
20260901113004 20 287 4.8 11.3 0.00 0.20 0.00 61 1019.5
20260901112004 20 279 8.0 19.3 0.00 0.20 0.00 61 1019.6
20260901111004 20 259 4.8 19.3 0.00 0.20 0.00 60 1019.7
20260901110004 20 289 6.4 17.7 0.00 0.20 0.00 61 1019.6
20260901102003 20 282 6.4 19.3 0.00 0.20 0.00 64 1019.9
20260901101003 20 285 4.8 14.5 0.00 0.20 0.00 64 1019.9
20260901094004 19 255 4.8 14.5 0.00 0.20 0.00 67 1020.1
20260901093003 18 240 4.8 12.9 0.00 0.20 0.00 68 1020.1
20260901092003 18 250 3.2 12.9 0.00 0.20 0.00 69 1020.1
20260901091003 18 255 3.2 9.7 0.00 0.20 0.00 71 1020.2
20260901090005 18 254 4.8 16.1 0.00 0.23 0.00 73 1020.2
20260901085004 17 259 4.8 11.3 0.00 0.23 0.00 75 1020.1
20260901084003 17 269 4.8 14.5 0.00 0.23 0.00 77 1020.1
20260901082005 16 236 3.2 9.7 0.00 0.23 0.00 80 1019.9
20260901081003 16 258 1.6 8.0 0.00 0.23 0.00 82 1020.0
20260901080003 15 269 1.6 6.4 0.00 0.23 0.00 84 1019.8
20260901074003 14 270 1.6 4.8 0.00 0.23 0.00 86 1019.8
20260901073003 14 0 0.0 3.2 0.00 0.23 0.00 86 1019.7
20260901072003 13 344 0.0 6.4 0.00 0.23 0.00 88 1019.7
20260901071003 13 0 0.0 3.2 0.00 0.23 0.00 90 1019.7
20260901065003 12 0 0.0 1.6 0.00 0.23 0.00 94 1019.7
20260901064003 12 0 0.0 1.6 0.00 0.23 0.00 94 1019.6
20260901063003 11 0 0.0 4.8 0.00 0.23 0.00 95 1019.5
20260901062003 11 0 0.0 0.0 0.00 0.23 0.00 94 1019.4
20260901061003 11 0 0.0 0.0 0.00 0.23 0.00 94 1019.4
20260901060003 11 0 0.0 0.0 0.00 0.23 0.00 94 1019.3
20260901055004 11 0 0.0 0.0 0.00 0.23 0.00 94 1019.3
20260901054004 11 0 0.0 0.0 0.00 0.23 0.00 94 1019.2
20260901052004 11 0 0.0 3.2 0.00 0.23 0.00 94 1019.0
20260901051003 11 0 0.0 1.6 0.00 0.23 0.00 94 1018.9
20260901050003 11 0 0.0 0.0 0.00 0.23 0.00 94 1018.9
20260901045003 11 0 0.0 1.6 0.00 0.23 0.00 94 1018.9
20260901044003 11 0 0.0 3.2 0.00 0.23 0.00 94 1018.9
20260901043003 11 0 0.0 1.6 0.00 0.23 0.00 93 1018.8
20260901042003 11 0 0.0 0.0 0.00 0.23 0.00 93 1018.7
20260901041003 11 0 0.0 1.6 0.00 0.23 0.00 93 1018.6
20260901040004 11 0 0.0 0.0 0.00 0.23 0.00 93 1018.6
20260901035003 11 0 0.0 3.2 0.00 0.23 0.00 93 1018.6
20260901034004 11 0 0.0 1.6 0.00 0.23 0.00 93 1018.6
20260901033003 11 0 0.0 3.2 0.00 0.23 0.00 92 1018.6
20260901032003 11 0 0.0 0.0 0.00 0.23 0.00 92 1018.6
20260901031003 11 0 0.0 0.0 0.00 0.23 0.00 92 1018.5
20260901025004 11 0 0.0 0.0 0.00 0.23 0.00 91 1018.4
20260901024003 11 0 0.0 0.0 0.00 0.23 0.00 91 1018.4
20260901023004 12 0 0.0 0.0 0.00 0.23 0.00 91 1018.5
20260901021003 12 0 0.0 0.0 0.00 0.23 0.00 90 1018.5
20260901015003 12 0 0.0 0.0 0.00 0.23 0.00 89 1018.6
20260901014003 12 0 0.0 0.0 0.00 0.28 0.00 89 1018.5
20260901013003 12 0 0.0 0.0 0.00 0.28 0.00 88 1018.5
20260901011003 13 0 0.0 0.0 0.00 0.28 0.00 87 1018.3
20260901010003 13 0 0.0 3.2 0.00 0.28 0.00 87 1018.3
20260901005004 13 0 0.0 4.8 0.00 0.28 0.00 87 1018.4
20260901004003 13 0 0.0 1.6 0.00 0.30 0.00 86 1018.4
20260901003004 13 0 0.0 1.6 0.00 0.30 0.00 86 1018.3
20260901002003 13 0 0.0 4.8 0.00 0.30 0.00 85 1018.2
20260901001003 13 0 0.0 3.2 0.00 0.30 0.00 85 1018.2
20260901000003 13 0 0.0 4.8 0.00 0.30 0.00 85 1018.2
20260831235004 14 0 0.0 6.4 0.00 0.30 0.00 84 1018.2
20260831234003 14 0 0.0 3.2 0.00 0.30 0.00 84 1018.1
20260831233003 14 0 0.0 3.2 0.00 0.30 0.00 84 1017.9
20260831232003 14 0 0.0 4.8 0.00 0.30 0.00 83 1018.0
20260831230005 15 313 0.0 4.8 0.00 0.30 0.00 83 1017.9
20260831224004 15 312 0.0 4.8 0.00 0.30 0.30 83 1018.0
20260831223003 15 312 1.6 4.8 0.00 0.30 0.30 83 1017.8
20260831222003 15 313 1.6 6.4 0.00 0.30 0.30 83 1017.7
20260831221003 15 312 1.6 8.0 0.00 0.30 0.30 83 1017.7
20260831215003 15 313 1.6 3.2 0.00 0.30 0.30 82 1017.7
20260831214004 15 312 1.6 4.8 0.00 0.30 0.30 81 1017.5
20260831213003 15 312 1.6 6.4 0.00 0.30 0.30 81 1017.5
20260831212003 15 312 1.6 4.8 0.00 0.30 0.30 80 1017.3
20260831211004 16 314 3.2 8.0 0.00 0.30 0.30 80 1017.2
20260831210003 16 312 3.2 9.7 0.00 0.30 0.30 80 1017.1
20260831205003 16 312 3.2 12.9 0.00 0.30 0.30 80 1017.1
20260831204004 16 314 3.2 8.0 0.00 0.30 0.30 80 1016.9
20260831201004 16 310 1.6 4.8 0.00 0.30 0.30 81 1016.6
20260831200003 16 314 3.2 6.4 0.00 0.30 0.30 80 1016.4
20260831195003 16 327 1.6 9.7 0.00 0.30 0.30 80 1016.3
20260831194004 16 332 0.0 8.0 0.00 0.30 0.30 81 1016.1
20260831193003 17 0 0.0 0.0 0.00 0.30 0.30 80 1016.0
20260831192003 17 307 1.6 6.4 0.00 0.30 0.30 79 1015.9
20260831191003 17 306 1.6 6.4 0.00 0.30 0.30 79 1015.8
20260831190004 17 309 3.2 8.0 0.00 0.30 0.30 78 1015.7
20260831185004 18 312 4.8 12.9 0.00 0.30 0.30 77 1015.6
20260831184003 18 322 3.2 16.1 0.00 0.30 0.30 78 1015.4
20260831183004 18 332 4.8 14.5 0.00 0.30 0.30 78 1015.2
20260831182004 18 323 3.2 16.1 0.00 0.30 0.30 78 1015.1
20260831181003 18 308 3.2 14.5 0.00 0.30 0.30 78 1014.8
20260831175004 18 267 3.2 11.3 0.00 0.30 0.30 81 1014.5
20260831174003 18 277 3.2 14.5 0.00 0.30 0.30 81 1014.4
20260831172003 18 0 0.0 4.8 0.00 0.30 0.30 89 1014.1
20260831171003 18 0 0.0 0.0 0.00 0.30 0.30 90 1014.1
20260831170003 18 0 0.0 0.0 0.00 0.30 0.30 91 1014.0
20260831164003 17 338 1.6 3.2 0.00 0.30 0.30 90 1013.7
20260831163005 17 339 1.6 6.4 0.00 0.30 0.30 90 1013.7
20260831161003 17 339 3.2 4.8 0.10 0.30 0.30 91 1013.5
20260831160003 17 339 3.2 6.4 0.10 0.30 0.30 91 1013.5
20260831153003 17 336 6.4 14.5 0.10 0.30 0.30 89 1013.4
20260831152005 17 326 8.0 20.9 0.05 0.25 0.25 88 1013.5
20260831151004 18 328 4.8 20.9 0.10 0.20 0.20 89 1013.3
20260831150004 17 308 3.2 8.0 0.10 0.20 0.20 90 1013.2
20260831144003 17 346 3.2 9.7 0.10 0.20 0.20 91 1012.9
20260831143003 17 348 4.8 9.7 0.10 0.20 0.20 90 1012.8
20260831142003 17 342 11.3 14.5 0.10 0.20 0.20 87 1012.8
20260831141004 19 329 9.7 30.6 0.00 0.10 0.10 80 1012.8
20260831140004 22 277 8.0 19.3 0.00 0.10 0.10 66 1012.2
20260831135004 22 297 6.4 20.9 0.00 0.10 0.10 65 1012.1
20260831134004 22 276 6.4 14.5 0.00 0.10 0.10 68 1012.0
20260831133004 22 264 6.4 22.5 0.00 0.10 0.10 71 1012.1
20260831132003 21 278 6.4 17.7 0.00 0.10 0.10 70 1011.8
20260831131004 22 284 8.0 19.3 0.00 0.10 0.10 68 1011.7
20260831130004 22 276 8.0 22.5 0.00 0.10 0.10 67 1011.5
20260831125003 22 273 8.0 19.3 0.00 0.10 0.10 68 1011.5
20260831124004 21 279 8.0 20.9 0.00 0.10 0.10 68 1011.3
20260831123005 21 324 8.0 24.1 0.00 0.10 0.10 70 1011.2
20260831122004 20 300 9.7 22.5 0.00 0.10 0.10 72 1011.2
20260831121003 20 324 11.3 24.1 0.00 0.10 0.10 72 1011.0
20260831120003 20 316 8.0 24.1 0.00 0.10 0.10 71 1010.9